Epoch,demod_status_bits,ebno,lock_status,signal_level,viterbi_ber
1664998652,C;S;V;F,12.0,0x00c000,-39.7,
1664998653,,11.7,0x00c000,-40.2,3.32e-6
1664998654,C;S;V;F,12.0,0x00c000,-39.6,4.84e-6
1664998655,C;S;V;F,,0x00c000,-39.6,6.05e-6
1664998656,C;S;V;F,11.6,0x00c000,-40.4,5.74e-6
1664998657,C;S;V;F,11.9,0x00c000,,8.77e-6
1664998658,C;S;V;F,11.7,0x00c000,-39.7,9.07e-6
1664998659,C;S;V;F,12.4,0x00c000,-39.6,3.17e-6
1664998660,C;S;V;F,12.7,0x00c000,-39.1,2.11e-6
1664998661,C;S;V;F,12.7,0x00c000,-39.6,1.36e-6
1664998662,C;S;V;F,12.1,0x00c000,-39.3,1.81e-6
1664998663,C;S;V;F,12.6,0x00c000,-39.4,6.06e-7
1664998664,C;S;V;F,12.9,0x00c000,-39.2,
1664998665,,12.4,0x00c000,-39.6,4.54e-7
1664998666,C;S;V;F,12.4,0x00c000,-39.4,1.21e-6
1664998667,C;S;V;F,12.8,0x00c000,-39.1,1.36e-6
1664998668,C;S;V;F,12.6,0x00c000,-39.2,1.05e-6
1664998669,C;S;V;F,,0x00c000,-38.8,1.51e-7
1664998670,C;S;V;F,13.2,0x00c000,,3.03e-7
1664998672,,12.7,0x00c000,-39.4,
1664998673,C;S;V;F,12.4,0x00c000,-39.6,1.51e-7
1664998674,C;S;V;F,,0x00c000,-38.9,1.51e-6
1664998675,C;S;V;F,12.9,0x00c000,-38.2,1.21e-6
1664998676,C;S;V;F,14.0,0x00c000,,1.51e-7
1664998677,C;S;V;F,13.9,0x00c000,-38.6,0.00e-0
1664998678,C;S;V;F,13.4,0x00c000,-38.7,0.00e-0
1664998679,C;S;V;F,13.5,0x00c000,-38.7,0.00e-0
1664998680,C;S;V;F,13.2,0x00c000,-39.1,1.51e-7
1664998681,C;S;V;F,13.6,0x00c000,-38.5,1.51e-7
1664998682,C;S;V;F,13.4,0x00c000,-38.8,1.51e-7
1664998683,C;S;V;F,13.8,0x00c000,-38.2,
1664998684,,13.9,0x00c000,-38.2,1.51e-7
1664998685,C;S;V;F,14.3,0x00c000,-37.8,0.00e-0
1664998686,C;S;V;F,14.0,0x00c000,-38.3,0.00e-0
1664998687,C;S;V;F,,0x00c000,-38.1,0.00e-0
1664998688,C;S;V;F,14.1,0x00c000,-38.7,0.00e-0
1664998689,C;S;V;F,13.7,0x00c000,,0.00e-0
1664998690,C;S;V;F,13.8,0x00c000,-38.5,0.00e-0
1664998691,C;S;V;F,13.8,0x00c000,-38.3,0.00e-0
1664998692,C;S;V;F,13.8,0x00c000,-38.4,0.00e-0
1664998693,C;S;V;F,14.5,0x00c000,-38.0,0.00e-0
1664998694,C;S;V;F,14.0,0x00c000,-38.1,0.00e-0
1664998695,C;S;V;F,14.1,0x00c000,-38.1,0.00e-0
1664998696,C;S;V;F,14.5,0x00c000,-37.9,0.00e-0
1664998697,C;S;V;F,14.7,0x00c000,-37.9,
1664998698,,13.7,0x00c000,-38.7,0.00e-0
1664998699,C;S;V;F,14.3,0x00c000,-38.1,0.00e-0
1664998700,C;S;V;F,,0x00c000,-38.6,0.00e-0
1664998701,C;S;V;F,13.6,0x00c000,-37.9,0.00e-0
1664998702,C;S;V;F,14.4,0x00c000,,0.00e-0
1664998703,C;S;V;F,14.7,0x00c000,-37.6,0.00e-0
1664998704,C;S;V;F,14.3,0x00c000,-37.9,0.00e-0
1664998705,C;S;V;F,14.8,0x00c000,-37.6,0.00e-0
1664998706,C;S;V;F,14.6,0x00c000,-37.5,0.00e-0
1664998707,C;S;V;F,15.4,0x00c000,-37.1,0.00e-0
1664998708,C;S;V;F,15.1,0x00c000,-37.6,0.00e-0
1664998709,C;S;V;F,15.0,0x00c000,-37.5,0.00e-0
1664998710,C;S;V;F,14.9,0x00c000,-37.2,
1664998711,,14.9,0x00c000,-37.7,0.00e-0
1664998712,C;S;V;F,14.6,0x00c000,-37.2,0.00e-0
1664998713,C;S;V;F,15.6,0x00c000,-36.5,0.00e-0
1664998714,C;S;V;F,,0x00c000,-36.9,0.00e-0
1664998715,C;S;V;F,15.5,0x00c000,-36.2,0.00e-0
1664998716,C;S;V;F,15.9,0x00c000,-36.9,0.00e-0
1664998717,C;S;V;F,15.8,0x00c000,,0.00e-0
1664998718,C;S;V;F,15.9,0x00c000,-35.9,0.00e-0
1664998719,C;S;V;F,16.0,0x00c000,-36.6,0.00e-0
1664998720,C;S;V;F,15.7,0x00c000,-36.7,0.00e-0
1664998721,C;S;V;F,16.2,0x00c000,-35.7,0.00e-0
1664998722,C;S;V;F,15.7,0x00c000,-36.4,0.00e-0
1664998723,,15.6,0x00c000,-36.5,
1664998724,C;S;V;F,15.5,0x00c000,-36.8,0.00e-0
1664998725,C;S;V;F,15.7,0x00c000,-36.5,0.00e-0
1664998726,C;S;V;F,,0x00c000,-36.1,0.00e-0
1664998727,C;S;V;F,16.2,0x00c000,,0.00e-0
1664998728,C;S;V;F,16.4,0x00c000,-36.0,0.00e-0
1664998729,C;S;V;F,16.0,0x00c000,-36.4,0.00e-0
1664998730,C;S;V;F,16.1,0x00c000,-36.1,0.00e-0
1664998731,C;S;V;F,16.3,0x00c000,-36.4,0.00e-0
1664998732,C;S;V;F,16.1,0x00c000,-36.4,0.00e-0
1664998734,C;S;V;F,16.3,0x00c000,-36.0,0.00e-0
1664998735,C;S;V;F,16.2,0x00c000,-36.3,
1664998736,C;S;V;F,16.6,0x00c000,-35.9,0.00e-0
1664998737,,16.6,0x00c000,-35.6,0.00e-0
1664998738,C;S;V;F,16.5,0x00c000,-35.7,0.00e-0
1664998739,C;S;V;F,,0x00c000,-36.0,0.00e-0
1664998740,C;S;V;F,16.3,0x00c000,-36.2,0.00e-0
1664998741,C;S;V;F,16.4,0x00c000,,0.00e-0
1664998742,C;S;V;F,16.1,0x00c000,-36.1,0.00e-0
1664998743,C;S;V;F,16.5,0x00c000,-35.9,0.00e-0
1664998744,C;S;V;F,16.8,0x00c000,-35.9,0.00e-0
1664998745,C;S;V;F,16.5,0x00c000,-36.0,0.00e-0
1664998746,C;S;V;F,16.7,0x00c000,-35.6,0.00e-0
1664998747,C;S;V;F,16.5,0x00c000,-36.1,
1664998748,,16.3,0x00c000,-36.3,0.00e-0
1664998749,C;S;V;F,16.3,0x00c000,-36.0,0.00e-0
1664998750,C;S;V;F,16.7,0x00c000,-35.9,0.00e-0
1664998751,C;S;V;F,,0x00c000,-35.9,0.00e-0
1664998752,C;S;V;F,16.7,0x00c000,,0.00e-0
1664998753,C;S;V;F,16.6,0x00c000,-35.5,0.00e-0
1664998754,C;S;V;F,16.7,0x00c000,-35.6,0.00e-0
1664998755,C;S;V;F,16.7,0x00c000,-35.5,0.00e-0
1664998756,C;S;V;F,16.9,0x00c000,-35.5,0.00e-0
1664998757,C;S;V;F,16.8,0x00c000,-35.1,0.00e-0
1664998758,C;S;V;F,17.0,0x00c000,-35.3,0.00e-0
1664998759,C;S;V;F,16.6,0x00c000,-35.5,0.00e-0
1664998760,C;S;V;F,16.9,0x00c000,-35.4,
1664998761,,16.8,0x00c000,-35.3,0.00e-0
1664998762,C;S;V;F,17.0,0x00c000,-35.5,0.00e-0
1664998763,C;S;V;F,16.9,0x00c000,-35.5,0.00e-0
1664998764,C;S;V;F,,0x00c000,-35.6,0.00e-0
1664998765,C;S;V;F,16.7,0x00c000,-35.9,0.00e-0
1664998766,C;S;V;F,16.6,0x00c000,,0.00e-0
1664998767,C;S;V;F,16.6,0x00c000,-35.6,0.00e-0
1664998768,C;S;V;F,16.8,0x00c000,-35.6,0.00e-0
1664998769,C;S;V;F,16.8,0x00c000,-35.7,0.00e-0
1664998770,C;S;V;F,16.8,0x00c000,-36.0,0.00e-0
1664998771,C;S;V;F,16.7,0x00c000,-35.9,
1664998772,,16.6,0x00c000,-36.3,0.00e-0
1664998773,C;S;V;F,16.4,0x00c000,-36.3,0.00e-0
1664998774,C;S;V;F,16.1,0x00c000,-36.3,0.00e-0
1664998775,C;S;V;F,,0x00c000,-36.4,0.00e-0
1664998776,C;S;V;F,16.0,0x00c000,,0.00e-0
1664998777,C;S;V;F,16.1,0x00c000,-36.4,0.00e-0
1664998778,C;S;V;F,16.1,0x00c000,-36.3,0.00e-0
1664998779,C;S;V;F,16.1,0x00c000,-36.4,0.00e-0
1664998780,C;S;V;F,16.1,0x00c000,-36.6,0.00e-0
1664998781,C;S;V;F,15.9,0x00c000,-36.6,0.00e-0
1664998785,,15.9,0x00c000,-36.4,
1664998786,C;S;V;F,16.3,0x00c000,-36.3,0.00e-0
1664998787,C;S;V;F,,0x00c000,-36.4,0.00e-0
1664998788,C;S;V;F,16.3,0x00c000,-36.4,0.00e-0
1664998789,C;S;V;F,16.1,0x00c000,,0.00e-0
1664998790,C;S;V;F,16.1,0x00c000,-36.5,0.00e-0
1664998791,C;S;V;F,16.1,0x00c000,-36.5,0.00e-0
1664998792,C;S;V;F,16.1,0x00c000,-36.5,0.00e-0
1664998793,C;S;V;F,15.9,0x00c000,-36.8,0.00e-0
1664998794,C;S;V;F,15.9,0x00c000,-36.7,0.00e-0
1664998795,C;S;V;F,15.9,0x00c000,-36.5,0.00e-0
1664998798,C;S;V;F,16.0,0x00c000,-36.6,0.00e-0
1664998799,C;S;V;F,15.7,0x00c000,-36.6,0.00e-0
1664998800,C;S;V;F,15.9,0x00c000,-36.8,0.00e-0
1664998801,C;S;V;F,15.9,0x00c000,-36.6,0.00e-0
1664998802,C;S;V;F,15.8,0x00c000,-36.7,0.00e-0
1664998803,C;S;V;F,15.7,0x00c000,-36.8,
1664998804,,16.1,0x00c000,-36.9,0.00e-0
1664998805,C;S;V;F,15.6,0x00c000,-37.1,0.00e-0
1664998806,C;S;V;F,16.0,0x00c000,-36.7,0.00e-0
1664998807,C;S;V;F,,0x00c000,-36.4,0.00e-0
1664998808,C;S;V;F,16.1,0x00c000,-36.4,0.00e-0
1664998809,C;S;V;F,16.3,0x00c000,,0.00e-0
1664998810,C;S;V;F,16.2,0x00c000,-36.4,0.00e-0
1664998811,C;S;V;F,16.3,0x00c000,-36.2,0.00e-0
1664998812,C;S;V;F,16.4,0x00c000,-36.1,0.00e-0
1664998813,C;S;V;F,16.3,0x00c000,-36.2,0.00e-0
1664998814,C;S;V;F,16.3,0x00c000,-36.4,0.00e-0
1664998815,C;S;V;F,16.2,0x00c000,-36.3,0.00e-0
1664998816,C;S;V;F,16.3,0x00c000,-36.3,0.00e-0
1664998817,,16.2,0x00c000,-36.3,
1664998818,C;S;V;F,16.3,0x00c000,-36.3,0.00e-0
1664998819,C;S;V;F,16.1,0x00c000,-36.4,0.00e-0
1664998820,C;S;V;F,,0x00c000,-36.4,0.00e-0
1664998821,C;S;V;F,16.1,0x00c000,,0.00e-0
1664998822,C;S;V;F,16.4,0x00c000,-36.4,0.00e-0
1664998823,C;S;V;F,16.7,0x00c000,-36.1,0.00e-0
1664998824,C;S;V;F,16.3,0x00c000,-36.2,0.00e-0
1664998825,C;S;V;F,16.4,0x00c000,-36.1,0.00e-0
1664998826,C;S;V;F,16.4,0x00c000,-36.4,0.00e-0
1664998827,,16.1,0x00c000,-36.2,
1664998828,C;S;V;F,16.6,0x00c000,-35.9,0.00e-0
1664998829,C;S;V;F,,0x00c000,-36.1,0.00e-0
1664998830,C;S;V;F,16.4,0x00c000,,0.00e-0
1664998831,C;S;V;F,16.5,0x00c000,-35.9,0.00e-0
1664998832,C;S;V;F,16.9,0x00c000,-35.6,0.00e-0
1664998833,C;S;V;F,16.9,0x00c000,-35.7,0.00e-0
1664998834,C;S;V;F,16.9,0x00c000,-35.4,0.00e-0
1664998835,C;S;V;F,17.0,0x00c000,-35.4,0.00e-0
1664998836,C;S;V;F,17.3,0x00c000,-35.4,0.00e-0
1664998837,C;S;V;F,17.2,0x00c000,-35.2,0.00e-0
1664998838,C;S;V;F,17.2,0x00c000,-35.5,
1664998839,,17.1,0x00c000,-35.5,0.00e-0
1664998840,C;S;V;F,17.0,0x00c000,-35.4,0.00e-0
1664998841,C;S;V;F,,0x00c000,-35.1,0.00e-0
1664998842,C;S;V;F,17.1,0x00c000,,0.00e-0
1664998843,C;S;V;F,17.3,0x00c000,-35.1,0.00e-0
1664998844,C;S;V;F,17.2,0x00c000,-35.2,0.00e-0
1664998845,C;S;V;F,17.3,0x00c000,-35.1,0.00e-0
1664998846,C;S;V;F,17.3,0x00c000,-34.8,0.00e-0
1664998847,C;S;V;F,17.4,0x00c000,-34.8,0.00e-0
1664998848,C;S;V;F,17.4,0x00c000,-34.8,0.00e-0
1664998849,C;S;V;F,17.4,0x00c000,-34.7,
1664998850,,17.5,0x00c000,-34.7,0.00e-0
1664998851,C;S;V;F,17.7,0x00c000,-34.5,0.00e-0
1664998852,C;S;V;F,17.7,0x00c000,-34.4,0.00e-0
1664998853,C;S;V;F,17.7,0x00c000,-34.2,0.00e-0
1664998854,C;S;V;F,,0x00c000,-34.0,0.00e-0
1664998855,C;S;V;F,18.0,0x00c000,-33.9,0.00e-0
1664998856,C;S;V;F,17.9,0x00c000,,0.00e-0
1664998857,C;S;V;F,18.1,0x00c000,-34.0,0.00e-0
1664998858,C;S;V;F,18.0,0x00c000,-34.0,0.00e-0
1664998860,,,0x00c000,-34.5,
1664998861,C;S;V;F,17.8,0x00c000,,0.00e-0
1664998862,C;S;V;F,18.0,0x00c000,-34.3,0.00e-0
1664998863,C;S;V;F,18.1,0x00c000,-34.0,0.00e-0
1664998864,C;S;V;F,18.1,0x00c000,-34.2,0.00e-0
1664998865,C;S;V;F,17.9,0x00c000,-34.3,0.00e-0
1664998866,C;S;V;F,17.9,0x00c000,-34.3,
1664998867,,17.9,0x00c000,-34.3,0.00e-0
1664998868,C;S;V;F,17.7,0x00c000,-34.5,0.00e-0
1664998869,C;S;V;F,17.6,0x00c000,-34.4,0.00e-0
1664998870,C;S;V;F,,0x00c000,-34.3,0.00e-0
1664998871,C;S;V;F,17.9,0x00c000,-34.3,0.00e-0
1664998872,C;S;V;F,17.9,0x00c000,,0.00e-0
1664998873,C;S;V;F,17.7,0x00c000,-34.4,0.00e-0
1664998874,C;S;V;F,17.8,0x00c000,-34.5,0.00e-0
1664998875,C;S;V;F,17.9,0x00c000,-34.5,0.00e-0
1664998876,C;S;V;F,17.4,0x00c000,-34.8,0.00e-0
1664998877,C;S;V;F,17.6,0x00c000,-34.5,0.00e-0
1664998878,C;S;V;F,17.5,0x00c000,-34.6,0.00e-0
1664998879,C;S;V;F,17.8,0x00c000,-34.6,0.00e-0
1664998880,,17.6,0x00c000,-34.4,
1664998881,C;S;V;F,17.7,0x00c000,-34.2,0.00e-0
1664998882,C;S;V;F,17.9,0x00c000,-34.3,0.00e-0
1664998883,C;S;V;F,,0x00c000,-34.4,0.00e-0
1664998884,C;S;V;F,18.1,0x00c000,,0.00e-0
1664998885,C;S;V;F,17.8,0x00c000,-34.7,0.00e-0
1664998886,C;S;V;F,17.4,0x00c000,-34.7,0.00e-0
1664998887,C;S;V;F,17.5,0x00c000,-34.8,0.00e-0
1664998888,C;S;V;F,17.5,0x00c000,-35.0,0.00e-0
1664998889,C;S;V;F,17.4,0x00c000,-35.0,0.00e-0
1664998890,C;S;V;F,17.6,0x00c000,-35.0,0.00e-0
1664998891,C;S;V;F,17.3,0x00c000,-35.1,0.00e-0
1664998892,C;S;V;F,17.4,0x00c000,-35.1,
1664998893,,17.1,0x00c000,-35.4,0.00e-0
1664998894,C;S;V;F,16.9,0x00c000,-35.6,0.00e-0
1664998895,C;S;V;F,,0x00c000,-35.5,0.00e-0
1664998896,C;S;V;F,17.0,0x00c000,-35.4,0.00e-0
1664998897,C;S;V;F,17.2,0x00c000,,0.00e-0
1664998898,C;S;V;F,17.2,0x00c000,-35.3,0.00e-0
1664998899,C;S;V;F,17.4,0x00c000,-35.4,0.00e-0
1664998900,C;S;V;F,16.9,0x00c000,-35.5,0.00e-0
1664998901,C;S;V;F,17.1,0x00c000,-35.4,0.00e-0
1664998902,C;S;V;F,17.0,0x00c000,-35.6,0.00e-0
1664998903,C;S;V;F,16.9,0x00c000,-36.0,0.00e-0
1664998904,C;S;V;F,16.7,0x00c000,-35.9,0.00e-0
1664998905,C;S;V;F,16.8,0x00c000,-35.7,
1664998906,,16.9,0x00c000,-36.0,0.00e-0
1664998907,C;S;V;F,16.6,0x00c000,-36.0,0.00e-0
1664998908,C;S;V;F,,0x00c000,-36.4,0.00e-0
1664998909,C;S;V;F,16.1,0x00c000,-36.6,0.00e-0
1664998910,C;S;V;F,16.1,0x00c000,,0.00e-0
1664998911,C;S;V;F,16.0,0x00c000,-37.1,0.00e-0
1664998912,C;S;V;F,15.9,0x00c000,-37.2,0.00e-0
1664998913,C;S;V;F,15.7,0x00c000,-37.2,0.00e-0
1664998914,C;S;V;F,15.2,0x00c000,-37.6,0.00e-0
1664998915,C;S;V;F,15.4,0x00c000,-37.6,
1664998916,,15.4,0x00c000,-37.5,0.00e-0
1664998917,C;S;V;F,15.5,0x00c000,-37.6,0.00e-0
1664998918,C;S;V;F,,0x00c000,-37.1,0.00e-0
1664998919,C;S;V;F,15.8,0x00c000,-37.2,0.00e-0
1664998920,C;S;V;F,15.7,0x00c000,,0.00e-0
1664998921,C;S;V;F,15.8,0x00c000,-37.0,0.00e-0
1664998923,,15.8,0x00c000,-37.1,
1664998924,C;S;V;F,15.5,0x00c000,-37.3,0.00e-0
1664998925,C;S;V;F,15.2,0x00c000,-37.6,0.00e-0
1664998926,C;S;V;F,,0x00c000,-37.6,0.00e-0
1664998927,C;S;V;F,15.2,0x00c000,-37.6,0.00e-0
1664998928,C;S;V;F,15.3,0x00c000,,0.00e-0
1664998929,C;S;V;F,15.8,0x00c000,-37.1,0.00e-0
1664998930,C;S;V;F,16.0,0x00c000,-36.8,0.00e-0
1664998931,C;S;V;F,16.2,0x00c000,-36.7,0.00e-0
1664998932,C;S;V;F,16.1,0x00c000,-36.4,0.00e-0
1664998933,C;S;V;F,16.4,0x00c000,-36.8,0.00e-0
1664998934,C;S;V;F,16.1,0x00c000,-37.0,0.00e-0
1664998935,C;S;V;F,15.5,0x00c000,-37.2,
1664998936,,15.6,0x00c000,-37.2,0.00e-0
1664998937,C;S;V;F,15.8,0x00c000,-37.2,0.00e-0
1664998938,C;S;V;F,16.0,0x00c000,-37.0,0.00e-0
1664998939,C;S;V;F,15.6,0x00c000,-37.1,0.00e-0
1664998940,C;S;V;F,,0x00c000,-37.2,0.00e-0
1664998941,C;S;V;F,15.8,0x00c000,,0.00e-0
1664998942,C;S;V;F,15.7,0x00c000,-37.2,0.00e-0
1664998943,C;S;V;F,15.6,0x00c000,-37.4,0.00e-0
1664998944,C;S;V;F,15.2,0x00c000,-37.9,0.00e-0
1664998945,C;S;V;F,14.9,0x00c000,-38.0,0.00e-0
1664998946,C;S;V;F,14.6,0x00c000,-38.3,0.00e-0
1664998947,C;S;V;F,14.8,0x00c000,-38.5,0.00e-0
1664998948,C;S;V;F,14.2,0x00c000,-38.9,0.00e-0
1664998949,,13.8,0x00c000,-39.5,
1664998950,C;S;V;F,12.9,0x00c000,-39.8,0.00e-0
1664998951,C;S;V;F,12.9,0x00c000,-40.2,0.00e-0
1664998952,C;S;V;F,,0x00c000,-40.1,1.51e-7
1664998953,C;S;V;F,13.0,0x00c000,-40.0,3.03e-7
1664998954,C;S;V;F,12.9,0x00c000,,1.51e-7
1664998955,C;S;V;F,13.1,0x00c000,-40.0,1.51e-7
1664998956,C;S;V;F,13.2,0x00c000,-39.9,1.51e-7
1664998957,C;S;V;F,12.8,0x00c000,-40.2,1.51e-7
1664998958,C;S;V;F,12.9,0x00c000,-40.2,3.03e-7
1664998959,C;S;V;F,12.6,0x00c000,-40.4,9.09e-7
1664998960,C;S;V;F,12.7,0x00c000,-40.0,1.21e-6
1664998961,C;S;V;F,12.9,0x00c000,-40.0,7.57e-7
1664998962,C;S;V;F,13.1,0x00c000,-39.7,
1664998963,,13.5,0x00c000,-39.6,4.54e-7
1664998964,C;S;V;F,13.8,0x00c000,-39.4,0.00e-0
1664998965,C;S;V;F,,0x00c000,-39.1,0.00e-0
1664998966,C;S;V;F,13.9,0x00c000,-39.2,0.00e-0
1664998967,C;S;V;F,14.0,0x00c000,,0.00e-0
1664998968,C;S;V;F,13.7,0x00c000,-39.2,0.00e-0
1664998969,C;S;V;F,13.4,0x00c000,-39.6,0.00e-0
1664998970,C;S;V;F,13.4,0x00c000,-39.6,0.00e-0
1664998971,C;S;V;F,13.8,0x00c000,-39.5,0.00e-0
1664998972,C;S;V;F,13.9,0x00c000,-39.2,0.00e-0
1664998973,C;S;V;F,14.6,0x00c000,-38.7,0.00e-0
1664998974,C;S;V;F,14.8,0x00c000,-38.0,0.00e-0
1664998975,C;S;V;F,15.1,0x00c000,-37.9,
1664998976,,14.8,0x00c000,-38.0,0.00e-0
1664998977,C;S;V;F,14.8,0x00c000,-38.5,0.00e-0
1664998978,C;S;V;F,14.5,0x00c000,-38.7,0.00e-0
1664998979,C;S;V;F,,0x00c000,,0.00e-0
1664998980,C;S;V;F,14.1,0x00c000,-38.7,0.00e-0
1664998981,C;S;V;F,14.2,0x00c000,-38.8,0.00e-0
1664998982,C;S;V;F,14.5,0x00c000,-38.5,0.00e-0
1664998983,C;S;V;F,15.1,0x00c000,-37.9,0.00e-0
1664998986,C;S;V;F,15.3,0x00c000,-38.0,0.00e-0
1664998987,C;S;V;F,15.3,0x00c000,-38.5,0.00e-0
1664998988,C;S;V;F,14.3,0x00c000,-38.8,0.00e-0
1664998989,C;S;V;F,14.2,0x00c000,-39.1,
1664998990,,14.3,0x00c000,-38.7,0.00e-0
1664998991,C;S;V;F,14.5,0x00c000,-38.4,0.00e-0
1664998992,C;S;V;F,14.5,0x00c000,-38.4,0.00e-0
1664998993,C;S;V;F,14.6,0x00c000,-38.4,0.00e-0
1664998994,C;S;V;F,,0x00c000,-38.3,0.00e-0
1664998995,C;S;V;F,14.7,0x00c000,,0.00e-0
1664998996,C;S;V;F,14.6,0x00c000,-38.3,0.00e-0
1664998997,C;S;V;F,14.9,0x00c000,-38.0,0.00e-0
1664998998,C;S;V;F,14.9,0x00c000,-37.8,0.00e-0
1664998999,C;S;V;F,15.6,0x00c000,-37.3,0.00e-0
1664999000,C;S;V;F,16.0,0x00c000,-36.8,0.00e-0
1664999001,C;S;V;F,16.1,0x00c000,-36.3,
1664999002,,16.5,0x00c000,-36.1,0.00e-0
1664999003,C;S;V;F,16.4,0x00c000,-36.2,0.00e-0
1664999004,C;S;V;F,16.1,0x00c000,-36.5,0.00e-0
1664999005,C;S;V;F,,0x00c000,-36.8,0.00e-0
1664999006,C;S;V;F,15.9,0x00c000,,0.00e-0
1664999007,C;S;V;F,16.0,0x00c000,-36.9,0.00e-0
1664999008,C;S;V;F,15.9,0x00c000,-37.2,0.00e-0
1664999009,C;S;V;F,15.2,0x00c000,-37.5,0.00e-0
1664999010,C;S;V;F,15.3,0x00c000,-37.6,0.00e-0
1664999011,C;S;V;F,15.2,0x00c000,-37.8,0.00e-0
1664999012,C;S;V;F,15.0,0x00c000,-37.9,0.00e-0
1664999013,C;S;V;F,15.2,0x00c000,-37.9,0.00e-0
1664999014,C;S;V;F,15.3,0x00c000,-38.0,
1664999015,,15.0,0x00c000,-37.8,0.00e-0
1664999016,C;S;V;F,15.1,0x00c000,-37.9,0.00e-0
1664999017,C;S;V;F,,0x00c000,-38.0,0.00e-0
1664999018,C;S;V;F,15.0,0x00c000,-38.4,0.00e-0
1664999019,C;S;V;F,15.0,0x00c000,,0.00e-0
1664999020,C;S;V;F,14.3,0x00c000,-38.8,0.00e-0
1664999021,C;S;V;F,14.3,0x00c000,-38.7,0.00e-0
1664999022,C;S;V;F,14.7,0x00c000,-38.4,0.00e-0
1664999023,C;S;V;F,14.7,0x00c000,-38.3,0.00e-0
1664999024,,14.6,0x00c000,-38.2,
1664999025,C;S;V;F,14.9,0x00c000,-38.3,0.00e-0
1664999026,C;S;V;F,,0x00c000,-38.4,0.00e-0
1664999027,C;S;V;F,14.7,0x00c000,-38.5,0.00e-0
1664999028,C;S;V;F,14.4,0x00c000,,0.00e-0
1664999029,C;S;V;F,14.1,0x00c000,-38.8,0.00e-0
1664999030,C;S;V;F,14.1,0x00c000,-38.9,0.00e-0
1664999031,C;S;V;F,14.2,0x00c000,-38.9,0.00e-0
1664999032,C;S;V;F,14.4,0x00c000,-38.9,0.00e-0
1664999033,C;S;V;F,14.4,0x00c000,-38.7,0.00e-0
1664999034,C;S;V;F,14.3,0x00c000,-38.8,0.00e-0
1664999035,,14.3,0x00c000,-38.6,
1664999036,C;S;V;F,14.8,0x00c000,-37.9,0.00e-0
1664999037,C;S;V;F,15.1,0x00c000,-37.9,0.00e-0
1664999038,C;S;V;F,15.2,0x00c000,-37.8,0.00e-0
1664999039,C;S;V;F,,0x00c000,-37.9,0.00e-0
1664999040,C;S;V;F,15.0,0x00c000,,0.00e-0
1664999041,C;S;V;F,14.7,0x00c000,-38.7,0.00e-0
1664999042,C;S;V;F,13.8,0x00c000,-39.1,0.00e-0
1664999043,C;S;V;F,13.8,0x00c000,-39.2,0.00e-0
1664999044,C;S;V;F,13.7,0x00c000,-39.1,0.00e-0
1664999045,C;S;V;F,14.1,0x00c000,-38.8,0.00e-0
1664999046,C;S;V;F,14.7,0x00c000,-38.2,0.00e-0
1664999049,C;S;V;F,15.7,0x00c000,-37.2,0.00e-0
1664999050,C;S;V;F,15.8,0x00c000,-36.8,0.00e-0
1664999051,C;S;V;F,15.8,0x00c000,-37.1,0.00e-0
1664999052,C;S;V;F,15.9,0x00c000,-37.0,0.00e-0
1664999053,C;S;V;F,16.2,0x00c000,-36.6,0.00e-0
1664999054,C;S;V;F,16.1,0x00c000,-36.7,0.00e-0
1664999055,C;S;V;F,15.9,0x00c000,-36.8,
1664999056,,15.9,0x00c000,-37.0,0.00e-0
1664999057,C;S;V;F,15.8,0x00c000,-37.1,0.00e-0
1664999058,C;S;V;F,15.6,0x00c000,-37.2,0.00e-0
1664999059,C;S;V;F,,0x00c000,-37.2,0.00e-0
1664999060,C;S;V;F,15.7,0x00c000,,0.00e-0
1664999061,C;S;V;F,15.8,0x00c000,-36.9,0.00e-0
1664999062,C;S;V;F,16.5,0x00c000,-36.3,0.00e-0
1664999063,C;S;V;F,16.9,0x00c000,-35.9,0.00e-0
1664999064,C;S;V;F,17.1,0x00c000,-35.6,0.00e-0
1664999065,C;S;V;F,17.0,0x00c000,-35.5,0.00e-0
1664999066,C;S;V;F,16.7,0x00c000,-35.6,0.00e-0
1664999067,C;S;V;F,16.5,0x00c000,-36.1,0.00e-0
1664999068,C;S;V;F,16.5,0x00c000,-36.1,
1664999069,,16.1,0x00c000,-36.8,0.00e-0
1664999070,C;S;V;F,15.9,0x00c000,-37.2,0.00e-0
1664999071,C;S;V;F,15.7,0x00c000,-37.3,0.00e-0
1664999072,C;S;V;F,,0x00c000,-37.7,0.00e-0
1664999073,C;S;V;F,15.5,0x00c000,,0.00e-0
1664999074,C;S;V;F,15.5,0x00c000,-37.6,0.00e-0
1664999075,C;S;V;F,14.9,0x00c000,-38.0,0.00e-0
1664999076,C;S;V;F,15.0,0x00c000,-38.0,0.00e-0
1664999077,C;S;V;F,15.2,0x00c000,-37.5,0.00e-0
1664999078,C;S;V;F,15.4,0x00c000,-37.4,0.00e-0
1664999079,C;S;V;F,15.9,0x00c000,-37.1,0.00e-0
1664999080,C;S;V;F,15.8,0x00c000,-36.7,0.00e-0
1664999081,C;S;V;F,16.2,0x00c000,-36.5,
1664999082,,16.1,0x00c000,-36.8,0.00e-0
1664999083,C;S;V;F,15.9,0x00c000,-36.8,0.00e-0
1664999084,C;S;V;F,15.8,0x00c000,-36.8,0.00e-0
1664999085,C;S;V;F,,0x00c000,,0.00e-0
1664999088,C;S;V;F,15.4,0x00c000,-37.4,0.00e-0
1664999089,C;S;V;F,15.4,0x00c000,-37.6,
1664999090,,15.3,0x00c000,-37.5,0.00e-0
1664999091,C;S;V;F,15.6,0x00c000,-37.4,0.00e-0
1664999092,C;S;V;F,,0x00c000,-37.3,0.00e-0
1664999093,C;S;V;F,15.9,0x00c000,,0.00e-0
1664999094,C;S;V;F,15.8,0x00c000,-37.1,0.00e-0
1664999095,C;S;V;F,16.2,0x00c000,-36.3,0.00e-0
1664999096,C;S;V;F,16.3,0x00c000,-36.2,0.00e-0
1664999097,C;S;V;F,16.8,0x00c000,-36.1,0.00e-0
1664999098,C;S;V;F,16.9,0x00c000,-36.0,0.00e-0
1664999099,C;S;V;F,16.9,0x00c000,-35.9,0.00e-0
1664999100,C;S;V;F,16.9,0x00c000,-35.8,0.00e-0
1664999101,C;S;V;F,17.2,0x00c000,-35.5,0.00e-0
1664999102,,17.1,0x00c000,-35.3,
1664999103,C;S;V;F,17.2,0x00c000,-35.3,0.00e-0
1664999104,C;S;V;F,16.9,0x00c000,-35.6,0.00e-0
1664999105,C;S;V;F,,0x00c000,-36.0,0.00e-0
1664999106,C;S;V;F,16.6,0x00c000,-36.3,0.00e-0
1664999107,C;S;V;F,16.4,0x00c000,,0.00e-0
1664999108,C;S;V;F,16.3,0x00c000,-36.4,0.00e-0
1664999109,C;S;V;F,16.4,0x00c000,-35.9,0.00e-0
1664999111,,16.9,0x00c000,-35.6,
1664999112,C;S;V;F,,0x00c000,,0.00e-0
1664999113,C;S;V;F,16.8,0x00c000,-35.7,0.00e-0
1664999114,C;S;V;F,16.6,0x00c000,-36.2,0.00e-0
1664999115,C;S;V;F,16.4,0x00c000,-36.1,0.00e-0
1664999116,C;S;V;F,16.6,0x00c000,-35.6,0.00e-0
1664999117,C;S;V;F,16.9,0x00c000,-35.6,0.00e-0
1664999118,C;S;V;F,17.0,0x00c000,-35.5,0.00e-0
1664999119,C;S;V;F,16.8,0x00c000,-35.7,0.00e-0
1664999120,C;S;V;F,16.6,0x00c000,-36.0,0.00e-0
1664999121,C;S;V;F,16.6,0x00c000,-36.6,
1664999122,,16.0,0x00c000,-36.7,0.00e-0
1664999123,C;S;V;F,16.2,0x00c000,-36.5,0.00e-0
1664999124,C;S;V;F,16.5,0x00c000,-36.4,0.00e-0
1664999125,C;S;V;F,,0x00c000,-36.1,0.00e-0
1664999126,C;S;V;F,16.6,0x00c000,-36.0,0.00e-0
1664999127,C;S;V;F,16.5,0x00c000,,0.00e-0
1664999128,C;S;V;F,16.3,0x00c000,-36.4,0.00e-0
1664999129,C;S;V;F,15.7,0x00c000,-37.3,0.00e-0
1664999130,C;S;V;F,15.0,0x00c000,-38.1,0.00e-0
1664999131,C;S;V;F,14.7,0x00c000,-38.1,0.00e-0
1664999132,C;S;V;F,15.1,0x00c000,-37.9,0.00e-0
1664999133,C;S;V;F,15.0,0x00c000,-37.6,0.00e-0
1664999134,C;S;V;F,15.7,0x00c000,-36.9,0.00e-0
1664999135,C;S;V;F,15.9,0x00c000,-36.6,
1664999136,,16.3,0x00c000,-36.4,0.00e-0
1664999137,C;S;V;F,15.9,0x00c000,-37.0,0.00e-0
1664999138,C;S;V;F,15.6,0x00c000,-37.4,0.00e-0
1664999139,C;S;V;F,15.5,0x00c000,-37.4,0.00e-0
1664999140,C;S;V;F,,0x00c000,-37.1,0.00e-0
1664999141,C;S;V;F,15.6,0x00c000,-36.4,0.00e-0
1664999142,C;S;V;F,16.5,0x00c000,,0.00e-0
1664999143,C;S;V;F,16.9,0x00c000,-35.7,0.00e-0
1664999144,C;S;V;F,16.8,0x00c000,-35.5,0.00e-0
1664999145,C;S;V;F,16.9,0x00c000,-35.4,0.00e-0
1664999146,C;S;V;F,16.7,0x00c000,-36.2,0.00e-0
1664999147,C;S;V;F,16.0,0x00c000,-36.9,0.00e-0
1664999148,C;S;V;F,15.4,0x00c000,-37.2,0.00e-0
1664999149,C;S;V;F,15.3,0x00c000,-37.5,
1664999150,,15.4,0x00c000,-37.2,0.00e-0
1664999151,C;S;V;F,15.5,0x00c000,-36.9,0.00e-0
1664999152,C;S;V;F,,0x00c000,-36.9,0.00e-0
1664999153,C;S;V;F,15.8,0x00c000,-36.4,0.00e-0
1664999154,C;S;V;F,16.0,0x00c000,,0.00e-0
1664999155,C;S;V;F,16.1,0x00c000,-36.7,0.00e-0
1664999156,C;S;V;F,15.8,0x00c000,-37.0,0.00e-0
1664999157,C;S;V;F,15.4,0x00c000,-37.4,0.00e-0
1664999158,C;S;V;F,15.3,0x00c000,-37.6,0.00e-0
1664999159,C;S;V;F,15.5,0x00c000,-37.2,0.00e-0
1664999160,C;S;V;F,15.8,0x00c000,-36.9,0.00e-0
1664999161,,16.1,0x00c000,-36.5,
1664999162,C;S;V;F,16.7,0x00c000,-35.8,0.00e-0
1664999163,C;S;V;F,,0x00c000,-36.1,0.00e-0
1664999164,C;S;V;F,16.3,0x00c000,-36.3,0.00e-0
1664999165,C;S;V;F,16.5,0x00c000,,0.00e-0
1664999166,C;S;V;F,16.3,0x00c000,-36.3,0.00e-0
1664999167,C;S;V;F,16.3,0x00c000,-36.3,0.00e-0
1664999168,C;S;V;F,15.9,0x00c000,-36.6,0.00e-0
1664999169,C;S;V;F,16.3,0x00c000,-36.4,
1664999170,,16.4,0x00c000,-36.1,0.00e-0
1664999171,C;S;V;F,16.4,0x00c000,-35.8,0.00e-0
1664999172,C;S;V;F,,0x00c000,,0.00e-0
1664999174,,16.6,0x00c000,-36.0,
1664999175,C;S;V;F,16.6,0x00c000,-35.6,0.00e-0
1664999176,C;S;V;F,16.3,0x00c000,-36.3,0.00e-0
1664999177,C;S;V;F,,0x00c000,-36.3,0.00e-0
1664999178,C;S;V;F,16.4,0x00c000,-36.4,0.00e-0
1664999179,C;S;V;F,16.2,0x00c000,,0.00e-0
1664999180,C;S;V;F,16.0,0x00c000,-36.3,0.00e-0
1664999181,C;S;V;F,16.7,0x00c000,-36.0,0.00e-0
1664999182,C;S;V;F,16.7,0x00c000,-36.0,0.00e-0
1664999183,C;S;V;F,16.7,0x00c000,-35.9,0.00e-0
1664999184,C;S;V;F,16.6,0x00c000,-35.6,0.00e-0
1664999185,C;S;V;F,16.9,0x00c000,-35.5,0.00e-0
1664999186,C;S;V;F,17.1,0x00c000,-35.4,0.00e-0
1664999187,,16.6,0x00c000,-35.6,
1664999188,C;S;V;F,16.9,0x00c000,-35.4,0.00e-0
1664999189,C;S;V;F,17.0,0x00c000,-35.4,0.00e-0
1664999190,C;S;V;F,16.7,0x00c000,-35.6,0.00e-0
1664999191,C;S;V;F,,0x00c000,-35.4,0.00e-0
1664999192,C;S;V;F,17.0,0x00c000,,0.00e-0
1664999193,C;S;V;F,16.8,0x00c000,-35.5,0.00e-0
1664999194,C;S;V;F,16.7,0x00c000,-35.4,0.00e-0
1664999195,C;S;V;F,16.9,0x00c000,-35.5,0.00e-0
1664999196,C;S;V;F,16.8,0x00c000,-35.3,0.00e-0
1664999197,C;S;V;F,17.0,0x00c000,-35.4,0.00e-0
1664999198,,16.9,0x00c000,-35.5,
1664999199,C;S;V;F,17.0,0x00c000,-35.4,0.00e-0
1664999200,C;S;V;F,16.9,0x00c000,-35.8,0.00e-0